Regional Weather Roundup
Issued by NWS Little Rock, AR

Home | Current Version | Previous Version | Graphics & Text | Print | Product List | Glossary On
Versions: 1 2 3 4 5 6 7 8 9 10 11 12 13 14 15 16 17 18 19 20 21 22 23 24 25 26 27 28 29 30 31 32 33 34 35 36 37 38 39 40 41 42 43 44 45 46 47 48 49 50
000
ASUS44 KLZK 051905
RWRLZK

WEATHER ROUNDUP FOR ARKANSAS
NATIONAL WEATHER SERVICE LITTLE ROCK AR
200 PM CDT SUN JUL 05 2015

NOTE: "FAIR" INDICATES FEW OR NO CLOUDS BELOW 12,000 FEET WITH NO
SIGNIFICANT WEATHER AND/OR OBSTRUCTIONS TO VISIBILITY.

ARZ001-003-010-029-052000-
NORTHWEST ARKANSAS

CITY           SKY/WX    TMP DP  RH WIND       PRES   REMARKS
FAYETTEVILLE   PTSUNNY   85  75  72 S10       30.03F HX  93
FORT SMITH     PTSUNNY   90  73  57 SW10      29.99F HX  98
HARRISON       TSTM      80  73  79 SE12      30.05F
BENTONVILLE    PTSUNNY   88  72  58 SW8       30.04F HX  94
ROGERS         PTSUNNY   87  74  64 S8        30.04F HX  95
SILOAM SPGS    PTSUNNY   88  73  62 S12       30.03F HX  96
HIGHFILL       PTSUNNY   86  75  69 SW10      30.02F HX  95
SPRINGDALE     PTSUNNY   88  73  62 SW10      30.05F HX  96
$$

ARZ004-005-016-052000-
NORTH CENTRAL ARKANSAS

CITY           SKY/WX    TMP DP  RH WIND       PRES   REMARKS
BATESVILLE     CLOUDY    79  72  78 SE8       30.08R
FLIPPIN          N/A     86  73  66 E5        30.02F HX  93
MTN HOME       MOSUNNY   84  73  69 E7        30.05F HX  90
$$

ARZ040-041-052000-
WEST CENTRAL ARKANSAS

CITY           SKY/WX    TMP DP  RH WIND       PRES   REMARKS
MENA           PTSUNNY   88  73  62 SW6       30.05F HX  96
MOUNT IDA      LGT RAIN  76  74  93 SE5       30.04F FOG
$$

ARZ009-017-025-026-028-052000-
NORTHEAST ARKANSAS

CITY           SKY/WX    TMP DP  RH WIND       PRES   REMARKS
JONESBORO      MOSUNNY   83  72  69 S9        30.07S HX  88
NEWPORT        MOSUNNY   85  73  67 S7        30.08F HX  91
WALNUT RIDGE   MOSUNNY   82  72  69 S10       30.06F HX  87
BLYTHEVILLE    PTSUNNY   84  73  69 SW7       30.07F HX  90
$$

ARZ022-023-033-042-044-052000-
CENTRAL ARKANSAS

CITY           SKY/WX    TMP DP  RH WIND       PRES   REMARKS
LITTLE ROCK    CLOUDY    83  72  69 S9        30.06F HX  88
N LITTLE ROCK  CLOUDY    84  76  77 S7        30.06F HX  92
JACKSONVILLE   PTSUNNY   83  75  75 VRB7      30.05F HX  90
SEARCY         CLOUDY    85  76  74 S9        30.08S HX  94
HOT SPRINGS    MOSUNNY   87  74  64 SW8       30.04F HX  95
RUSSELLVILLE   PTSUNNY   87  75  67 VRB3      30.02F HX  96
$$

ARZ036-052000-
EAST ARKANSAS

CITY           SKY/WX    TMP DP  RH WIND       PRES   REMARKS
WEST MEMPHIS   CLOUDY    80  73  79 S9        30.08F
$$

ARZ050-053-066-070-073-052000-
SOUTHWEST ARKANSAS

CITY           SKY/WX    TMP DP  RH WIND       PRES   REMARKS
ARKADELPHIA    FAIR      89  77  67 W7        30.04F HX 101
CAMDEN         PTSUNNY   88  73  62 MISG      30.05S HX  96
TEXARKANA      MOSUNNY   89  74  60 S10       30.04F HX  98
EL DORADO      PTSUNNY   86  74  67 SW6       30.06F HX  94
DE QUEEN       MOSUNNY   88  77  69 CALM      30.01F HX 100
$$

ARZ056-057-069-052000-
SOUTHEAST ARKANSAS

CITY           SKY/WX    TMP DP  RH WIND       PRES   REMARKS
PINE BLUFF     LGT RAIN  71  70  96 SE15      30.10S FOG
STUTTGART      CLOUDY    77  70  78 MISG      30.07F
MONTICELLO     CLOUDY    71  69  93 S7        30.12F

$$





USA.gov is the U.S. government's official web portal to all federal, state and local government web resources and services.